| time (UTC) | temp F | wind direction | speed MPH | gust MPH | rain 1hr in | rain 24hr in | rain mn in | humidity % | barometer mb |
| 20260506113339 | 44 | 32 | 0.0 | 3.0 | 0.00 | 0.24 | 0.01 | 91 | 1012.2 |
| 20260506112138 | 44 | 47 | 0.0 | 0.0 | 0.00 | 0.24 | 0.01 | 91 | 1012.2 |
| 20260506110908 | 44 | 47 | 0.0 | 0.0 | 0.00 | 0.24 | 0.01 | 90 | 1012.0 |
| 20260506105709 | 44 | 47 | 0.0 | 0.0 | 0.00 | 0.24 | 0.01 | 90 | 1011.6 |
| 20260506104434 | 45 | 47 | 0.0 | 0.0 | 0.00 | 0.24 | 0.01 | 90 | 1011.4 |
| 20260506103159 | 45 | 47 | 0.0 | 0.0 | 0.00 | 0.24 | 0.01 | 91 | 1011.3 |
| 20260506101941 | 46 | 47 | 0.0 | 0.0 | 0.00 | 0.24 | 0.01 | 91 | 1010.9 |
| 20260506100812 | 46 | 47 | 0.0 | 0.0 | 0.00 | 0.24 | 0.01 | 91 | 1010.9 |
| 20260506095549 | 46 | 47 | 0.0 | 0.0 | 0.00 | 0.24 | 0.01 | 91 | 1010.8 |
| 20260506094410 | 46 | 47 | 0.0 | 0.0 | 0.00 | 0.24 | 0.01 | 91 | 1010.5 |
| 20260506093214 | 45 | 47 | 0.0 | 0.0 | 0.00 | 0.24 | 0.01 | 91 | 1010.7 |
| 20260506092010 | 45 | 47 | 0.0 | 0.0 | 0.00 | 0.24 | 0.01 | 91 | 1010.6 |
| 20260506090818 | 45 | 47 | 0.0 | 0.0 | 0.00 | 0.24 | 0.01 | 90 | 1010.6 |
| 20260506085553 | 45 | 47 | 0.0 | 0.0 | 0.00 | 0.24 | 0.01 | 90 | 1010.7 |
| 20260506084335 | 45 | 47 | 0.0 | 0.0 | 0.00 | 0.24 | 0.01 | 90 | 1010.6 |
| 20260506083148 | 46 | 47 | 0.0 | 0.0 | 0.00 | 0.24 | 0.01 | 90 | 1010.6 |
| 20260506081946 | 46 | 47 | 0.0 | 0.0 | 0.00 | 0.24 | 0.01 | 90 | 1010.5 |
| 20260506080800 | 45 | 47 | 0.0 | 0.0 | 0.00 | 0.24 | 0.01 | 90 | 1010.5 |
| 20260506073200 | 45 | 47 | 0.0 | 0.0 | 0.00 | 0.24 | 0.01 | 90 | 1010.0 |
| 20260506071958 | 45 | 47 | 0.0 | 1.0 | 0.00 | 0.24 | 0.01 | 90 | 1009.5 |
| 20260506070739 | 45 | 47 | 0.0 | 2.0 | 0.00 | 0.24 | 0.01 | 90 | 1010.1 |
| 20260506061955 | 46 | 116 | 0.0 | 1.0 | 0.00 | 0.24 | 0.00 | 90 | 1010.1 |
| 20260506060748 | 46 | 342 | 0.0 | 1.0 | 0.00 | 0.27 | 0.00 | 90 | 1010.5 |
| 20260506050847 | 46 | 31 | 0.0 | 0.0 | 0.00 | 0.38 | 0.00 | 90 | 1010.8 |
| 20260506044440 | 46 | 31 | 0.0 | 0.0 | 0.00 | 0.39 | 0.00 | 90 | 1010.7 |
| 20260506043301 | 46 | 31 | 0.0 | 0.0 | 0.00 | 0.39 | 0.00 | 90 | 1010.4 |
| 20260506042116 | 46 | 31 | 0.0 | 0.0 | 0.00 | 0.39 | 0.00 | 89 | 1010.3 |
| 20260506040936 | 46 | 31 | 0.0 | 0.0 | 0.00 | 0.39 | 0.00 | 89 | 1010.2 |
| 20260506035733 | 46 | 31 | 0.0 | 0.0 | 0.00 | 0.39 | 0.38 | 89 | 1010.2 |
| 20260506034522 | 46 | 31 | 0.0 | 0.0 | 0.00 | 0.39 | 0.38 | 89 | 1010.4 |
| 20260506033350 | 46 | 31 | 0.0 | 0.0 | 0.00 | 0.39 | 0.38 | 89 | 1010.1 |
| 20260506032147 | 46 | 31 | 0.0 | 0.0 | 0.00 | 0.39 | 0.38 | 88 | 1010.1 |
| 20260506030953 | 46 | 31 | 0.0 | 0.0 | 0.00 | 0.38 | 0.38 | 88 | 1010.2 |
| 20260506025815 | 46 | 31 | 0.0 | 0.0 | 0.00 | 0.38 | 0.38 | 88 | 1010.1 |
| 20260506024617 | 46 | 31 | 0.0 | 0.0 | 0.00 | 0.38 | 0.38 | 88 | 1010.2 |
| 20260506023349 | 46 | 31 | 0.0 | 0.0 | 0.00 | 0.38 | 0.38 | 88 | 1009.8 |
| 20260506022208 | 46 | 31 | 0.0 | 0.0 | 0.00 | 0.38 | 0.38 | 89 | 1009.8 |
| 20260506020946 | 46 | 31 | 0.0 | 0.0 | 0.00 | 0.38 | 0.38 | 88 | 1009.7 |
| 20260506015743 | 47 | 31 | 0.0 | 0.0 | 0.00 | 0.38 | 0.38 | 88 | 1009.8 |
| 20260506014545 | 47 | 31 | 0.0 | 0.0 | 0.00 | 0.38 | 0.38 | 88 | 1009.8 |
| 20260506013313 | 47 | 31 | 0.0 | 0.0 | 0.00 | 0.38 | 0.38 | 87 | 1009.8 |
| 20260506012128 | 47 | 31 | 0.0 | 7.0 | 0.00 | 0.38 | 0.38 | 87 | 1009.7 |
| 20260506010956 | 47 | 25 | 1.0 | 7.0 | 0.00 | 0.38 | 0.38 | 88 | 1009.5 |
| 20260506005727 | 48 | 5 | 1.0 | 4.0 | 0.00 | 0.38 | 0.38 | 90 | 1009.3 |
| 20260506004447 | 49 | 355 | 0.0 | 4.0 | 0.00 | 0.38 | 0.38 | 90 | 1009.1 |
| 20260506003307 | 49 | 262 | 0.0 | 2.0 | 0.04 | 0.38 | 0.38 | 90 | 1009.1 |
| 20260506002128 | 49 | 261 | 0.0 | 0.0 | 0.00 | 0.36 | 0.37 | 90 | 1009.0 |
| 20260506000955 | 49 | 261 | 0.0 | 0.0 | 0.00 | 0.36 | 0.37 | 89 | 1009.1 |
| 20260505235754 | 49 | 261 | 0.0 | 1.0 | 0.05 | 0.36 | 0.36 | 89 | 1009.1 |
| 20260505234624 | 49 | 261 | 0.0 | 0.0 | 0.00 | 0.35 | 0.35 | 89 | 1009.1 |
| 20260505233448 | 49 | 261 | 0.0 | 0.0 | 0.00 | 0.33 | 0.34 | 89 | 1009.2 |
| 20260505232248 | 49 | 261 | 0.0 | 1.0 | 0.00 | 0.33 | 0.34 | 89 | 1009.2 |
| 20260505231053 | 49 | 261 | 0.0 | 0.0 | 0.00 | 0.32 | 0.33 | 89 | 1009.1 |
| 20260505225920 | 49 | 256 | 0.0 | 1.0 | 0.00 | 0.32 | 0.33 | 89 | 1009.2 |
| 20260505224647 | 49 | 255 | 0.0 | 0.0 | 0.00 | 0.32 | 0.33 | 89 | 1009.1 |
| 20260505223410 | 49 | 256 | 0.0 | 1.0 | 0.04 | 0.32 | 0.32 | 88 | 1009.1 |
| 20260505222149 | 49 | 256 | 0.0 | 0.0 | 0.06 | 0.32 | 0.32 | 89 | 1009.1 |
| 20260505220923 | 49 | 256 | 0.0 | 0.0 | 0.05 | 0.29 | 0.30 | 88 | 1009.2 |
| 20260505215751 | 49 | 243 | 0.0 | 0.0 | 0.06 | 0.29 | 0.30 | 88 | 1009.3 |
| 20260505214612 | 49 | 237 | 0.0 | 0.0 | 0.05 | 0.27 | 0.27 | 88 | 1009.1 |
| 20260505213401 | 49 | 236 | 0.0 | 0.0 | 0.00 | 0.26 | 0.27 | 88 | 1009.0 |
| 20260505212153 | 49 | 236 | 0.0 | 0.0 | 0.00 | 0.26 | 0.26 | 88 | 1009.0 |
| 20260505210925 | 49 | 236 | 0.0 | 0.0 | 0.00 | 0.24 | 0.26 | 87 | 1008.9 |
| 20260505205707 | 49 | 236 | 0.0 | 0.0 | 0.00 | 0.24 | 0.25 | 87 | 1009.0 |
| 20260505204426 | 49 | 236 | 0.0 | 0.0 | 0.00 | 0.24 | 0.25 | 86 | 1009.1 |
| 20260505203218 | 49 | 344 | 0.0 | 0.0 | 0.00 | 0.24 | 0.25 | 86 | 1008.8 |
| 20260505201942 | 49 | 336 | 1.0 | 6.0 | 0.00 | 0.24 | 0.24 | 84 | 1009.1 |
| 20260505200732 | 49 | 31 | 1.0 | 11.0 | 0.00 | 0.24 | 0.24 | 84 | 1009.0 |
| 20260505195509 | 49 | 12 | 3.0 | 11.0 | 0.00 | 0.24 | 0.24 | 82 | 1008.8 |
| 20260505194250 | 49 | 335 | 1.0 | 9.0 | 0.00 | 0.24 | 0.24 | 82 | 1009.0 |
| 20260505193033 | 50 | 19 | 3.0 | 9.0 | 0.00 | 0.24 | 0.24 | 81 | 1009.2 |
| 20260505191822 | 50 | 36 | 3.0 | 9.0 | 0.00 | 0.23 | 0.23 | 82 | 1009.2 |
| 20260505190649 | 50 | 10 | 1.0 | 9.0 | 0.00 | 0.23 | 0.23 | 83 | 1009.1 |
| 20260505185424 | 51 | 329 | 3.0 | 8.0 | 0.00 | 0.23 | 0.23 | 83 | 1009.1 |
| 20260505184148 | 51 | 337 | 0.0 | 2.0 | 0.00 | 0.23 | 0.23 | 85 | 1009.3 |
| 20260505182953 | 51 | 337 | 0.0 | 0.0 | 0.04 | 0.23 | 0.23 | 85 | 1009.4 |
| 20260505181821 | 51 | 337 | 0.0 | 0.0 | 0.04 | 0.21 | 0.23 | 85 | 1009.4 |
| 20260505180642 | 51 | 337 | 0.0 | 0.0 | 0.08 | 0.21 | 0.21 | 84 | 1009.5 |
| 20260505175406 | 51 | 337 | 0.0 | 3.0 | 0.05 | 0.19 | 0.20 | 81 | 1009.0 |
| 20260505174202 | 52 | 349 | 0.0 | 1.0 | 0.06 | 0.19 | 0.20 | 82 | 1009.1 |
| 20260505173001 | 52 | 349 | 0.0 | 1.0 | 0.04 | 0.18 | 0.18 | 80 | 1009.2 |
| 20260505171759 | 52 | 348 | 0.0 | 2.0 | 0.00 | 0.16 | 0.17 | 78 | 1008.9 |
| 20260505170551 | 53 | 335 | 0.0 | 3.0 | 0.00 | 0.16 | 0.17 | 73 | 1009.0 |
| 20260505165415 | 53 | 13 | 0.0 | 0.0 | 0.00 | 0.16 | 0.16 | 75 | 1008.8 |
| 20260505164158 | 53 | 13 | 1.0 | 3.0 | 0.00 | 0.16 | 0.16 | 68 | 1008.3 |
| 20260505162954 | 54 | 0 | 0.0 | 3.0 | 0.00 | 0.16 | 0.16 | 67 | 1008.4 |
| 20260505161718 | 54 | 355 | 0.0 | 3.0 | 0.00 | 0.16 | 0.16 | 66 | 1008.5 |
| 20260505160506 | 54 | 347 | 1.0 | 4.0 | 0.00 | 0.16 | 0.16 | 65 | 1008.8 |
| 20260505153020 | 54 | 338 | 3.0 | 11.0 | 0.00 | 0.16 | 0.16 | 67 | 1008.5 |
| 20260505151747 | 54 | 355 | 1.0 | 15.0 | 0.00 | 0.16 | 0.16 | 70 | 1008.5 |
| 20260505150539 | 53 | 296 | 5.0 | 16.0 | 0.00 | 0.16 | 0.16 | 67 | 1008.6 |
| 20260505140512 | 54 | 35 | 3.0 | 19.0 | 0.00 | 0.16 | 0.16 | 74 | 1008.2 |
| 20260505124101 | 58 | 227 | 0.0 | 6.0 | 0.00 | 0.16 | 0.16 | 88 | 1006.2 |
| 20260505122909 | 58 | 213 | 0.0 | 6.0 | 0.00 | 0.16 | 0.16 | 89 | 1005.5 |
| 20260505121709 | 57 | 222 | 0.0 | 1.0 | 0.00 | 0.16 | 0.16 | 89 | 1005.7 |
| 20260505120529 | 57 | 24 | 0.0 | 4.0 | 0.00 | 0.16 | 0.16 | 90 | 1005.8 |
| 20260505115336 | 56 | 337 | 0.0 | 6.0 | 0.00 | 0.16 | 0.16 | 90 | 1006.2 |
| 20260505114056 | 56 | 69 | 0.0 | 4.0 | 0.00 | 0.16 | 0.16 | 91 | 1006.0 |